STARLINK-2280 (47861 NORAD) Tracking and Keplerian Element Data

This shows tracking and keplerian element data for the satellite.

Feedback or suggestion? Click here.




ElementValue
Catalog47861
NameSTARLINK-2280
Epoch Orbit1631
Epoch Day173.91668981
Epoch Year2021
RAAN78.5653
Inclination53.0483
Eccentricity0.0002386
Argument of Perigee20.7431
Mean Anonmoly198.7797
Mean Motion15.73212986
Decay Rate-1.22E-06
L11 47861U 21021B 21173.91668981 -.00000122 00000-0 35627-5 0 9998
L22 47861 53.0483 78.5653 0002386 20.7431 198.7797 15.73212986 16314

Live tracking and technical data element details for STARLINK-2280 (NORAD 47861). STARLINK-2280 can be tracked NOW for your location showing map with azimuth and elevation plus other details from your city location.

Track the satellite on the map from your city or location and see movement details for azimuth, elevation, latitude, longitude, range, height, and movement on the map or in text.







IsCatalogInMostPopularTable: catalog: 47861, numindb: 47
Update: records affected: 1



GetName: 47861 STARLINK-2280

Hit Count: updated at: Thu, 24 Jun 2021 03:58:25 GMT